Zurück zum Katalog

STARLINK-37004

AktivKommunikationVLEO
NORAD 68089·PAYLOAD·🇺🇸 United States

Gestartet Mar 4, 2026 von Vandenberg Space Force Base

Loading…

Nächste Überflüge (nächste 24 Stunden)

TLE

AktuellSource: CelesTrak SupGP

Epoche: Sep 14, 2026, 22:55 UTC

1 68089C 26042W   26257.95534722 -.00009825  00000+0 -29039-3 0  2572
2 68089  53.1590  15.9572 0001114  81.4948 292.9481 15.34384598    12

Verfolge STARLINK-37004 in Echtzeit mit AllMySat

Download on the App Store